Track STARLINK-1720 now! 10-day predictions STARLINK-1720 is classified as:
1 46675U 20073F 21109.11846617 -.00000980 00000-0 -46900-4 0 9999 2 46675 53.0580 337.3544 0001612 83.6899 276.4274 15.06390616 28484